• In Österreich
  • Länderverzeichnis
  • Für 7 Tage
  • Wassertemperatur
  • Satellitenkarten
  • Wetterkarte
  • News
  • Widgets
  • user-avatar
    Anmelden

    Stündliche Wetter Bolshoe Babino

    Heute, 19 Juli, Donnerstag

    Zeit Temperatur Niederschläge Wind Luftdruck Luftfeuchtigkeit
    00:00 +18°C° 0 mm 3 m/S 737 mmHg 96%
    01:00 +17°C° 0 mm 3 m/S 737 mmHg 96%
    02:00 +17°C° 0 mm 2 m/S 737 mmHg 98%
    03:00 +17°C° 0,1 mm 2 m/S 737 mmHg 98%
    04:00 +17°C° 0,1 mm 2 m/S 737 mmHg 98%
    05:00 +17°C° 0,1 mm 2 m/S 737 mmHg 99%
    06:00 +18°C° 0,6 mm 2 m/S 737 mmHg 97%
    07:00 +19°C° 0,6 mm 2 m/S 737 mmHg 96%
    08:00 +20°C° 0 mm 3 m/S 737 mmHg 94%
    09:00 +20°C° 1,7 mm 3 m/S 737 mmHg 93%
    10:00 +21°C° 1,7 mm 3 m/S 737 mmHg 91%
    11:00 +22°C° 1,7 mm 3 m/S 737 mmHg 89%
    12:00 +22°C° 2 mm 3 m/S 737 mmHg 89%
    13:00 +22°C° 2 mm 4 m/S 737 mmHg 88%
    14:00 +23°C° 2 mm 4 m/S 737 mmHg 87%
    15:00 +24°C° 1,2 mm 3 m/S 737 mmHg 88%
    16:00 +22°C° 1,2 mm 3 m/S 737 mmHg 88%
    17:00 +22°C° 1,2 mm 3 m/S 737 mmHg 88%
    18:00 +22°C° 0,2 mm 3 m/S 737 mmHg 90%
    19:00 +21°C° 0,2 mm 2 m/S 737 mmHg 91%
    20:00 +21°C° 0,2 mm 2 m/S 737 mmHg 92%
    21:00 +20°C° 0,5 mm 2 m/S 737 mmHg 93%
    22:00 +19°C° 0,5 mm 3 m/S 737 mmHg 95%
    23:00 +19°C° 0,5 mm 3 m/S 737 mmHg 96%

    Morgen, 20 Juli, Freitag

    Zeit Temperatur Niederschläge Wind Luftdruck Luftfeuchtigkeit
    00:00 +19°C° 0,2 mm 3 m/S 737 mmHg 97%
    01:00 +18°C° 0,2 mm 3 m/S 737 mmHg 97%
    02:00 +18°C° 0,2 mm 2 m/S 737 mmHg 98%
    03:00 +18°C° 0 mm 2 m/S 737 mmHg 98%
    04:00 +18°C° 0 mm 2 m/S 737 mmHg 98%
    05:00 +18°C° 0 mm 2 m/S 737 mmHg 98%
    06:00 +18°C° 0 mm 3 m/S 737 mmHg 97%
    07:00 +19°C° 0 mm 3 m/S 737 mmHg 95%
    08:00 +20°C° 0 mm 3 m/S 737 mmHg 94%
    09:00 +21°C° 0,1 mm 3 m/S 737 mmHg 92%
    10:00 +21°C° 0,1 mm 3 m/S 737 mmHg 89%
    11:00 +22°C° 0,1 mm 3 m/S 737 mmHg 87%
    12:00 +24°C° 0,8 mm 3 m/S 737 mmHg 85%
    13:00 +25°C° 0,8 mm 3 m/S 737 mmHg 83%
    14:00 +25°C° 0,8 mm 3 m/S 737 mmHg 81%
    15:00 +25°C° 1,5 mm 3 m/S 737 mmHg 82%
    16:00 +25°C° 1,5 mm 3 m/S 737 mmHg 84%
    17:00 +25°C° 1,5 mm 3 m/S 737 mmHg 85%
    18:00 +24°C° 0,8 mm 3 m/S 737 mmHg 88%
    19:00 +23°C° 0,8 mm 2 m/S 737 mmHg 91%
    20:00 +21°C° 0,8 mm 2 m/S 737 mmHg 93%
    21:00 +20°C° 0 mm 2 m/S 737 mmHg 94%
    22:00 +20°C° 0 mm 2 m/S 737 mmHg 95%
    23:00 +19°C° 0 mm 2 m/S 737 mmHg 96%

    übermorgen, 21 Juli, Samstag

    Zeit Temperatur Niederschläge Wind Luftdruck Luftfeuchtigkeit
    00:00 +19°C° 0 mm 2 m/S 737 mmHg 96%
    01:00 +20°C° 0 mm 1 m/S 737 mmHg 96%
    02:00 +20°C° 0 mm 1 m/S 737 mmHg 96%
    03:00 +20°C° 0 mm 1 m/S 737 mmHg 97%
    04:00 +20°C° 0 mm 1 m/S 737 mmHg 97%
    05:00 +20°C° 0 mm 1 m/S 737 mmHg 97%
    06:00 +21°C° 0,4 mm 1 m/S 737 mmHg 95%
    07:00 +22°C° 0,4 mm 1 m/S 737 mmHg 92%
    08:00 +23°C° 0,4 mm 2 m/S 738 mmHg 90%
    09:00 +24°C° 0,8 mm 2 m/S 738 mmHg 86%
    10:00 +25°C° 0,8 mm 2 m/S 738 mmHg 82%
    11:00 +26°C° 0,8 mm 2 m/S 738 mmHg 78%
    12:00 +26°C° 2 mm 2 m/S 738 mmHg 79%
    13:00 +26°C° 2 mm 2 m/S 738 mmHg 80%
    14:00 +26°C° 2 mm 2 m/S 738 mmHg 81%
    15:00 +25°C° 1,1 mm 2 m/S 738 mmHg 84%
    16:00 +25°C° 1,1 mm 2 m/S 738 mmHg 87%
    17:00 +24°C° 1,1 mm 3 m/S 737 mmHg 89%
    18:00 +24°C° 0,6 mm 3 m/S 738 mmHg 91%
    19:00 +23°C° 0,6 mm 2 m/S 738 mmHg 92%
    20:00 +21°C° 0,6 mm 2 m/S 738 mmHg 93%
    21:00 +21°C° 0,2 mm 2 m/S 738 mmHg 94%
    22:00 +20°C° 0,2 mm 2 m/S 738 mmHg 95%
    23:00 +20°C° 0,2 mm 2 m/S 738 mmHg 96%

    22 Juli, Sonntag

    Zeit Temperatur Niederschläge Wind Luftdruck Luftfeuchtigkeit
    00:00 +20°C° 0 mm 2 m/S 737 mmHg 96%
    01:00 +19°C° 0 mm 2 m/S 737 mmHg 96%
    02:00 +19°C° 0 mm 2 m/S 737 mmHg 97%
    03:00 +19°C° 1,1 mm 2 m/S 737 mmHg 97%
    04:00 +19°C° 1,1 mm 2 m/S 737 mmHg 97%
    05:00 +19°C° 1,1 mm 2 m/S 737 mmHg 98%
    06:00 +20°C° 1 mm 2 m/S 737 mmHg 96%
    07:00 +21°C° 1 mm 2 m/S 737 mmHg 95%
    08:00 +21°C° 1 mm 2 m/S 737 mmHg 93%
    09:00 +22°C° 0,9 mm 3 m/S 737 mmHg 91%
    10:00 +24°C° 0,9 mm 3 m/S 737 mmHg 89%
    11:00 +24°C° 0,9 mm 3 m/S 737 mmHg 87%
    12:00 +25°C° 0,6 mm 4 m/S 737 mmHg 85%
    13:00 +25°C° 0,6 mm 4 m/S 737 mmHg 83%
    14:00 +26°C° 0,6 mm 4 m/S 737 mmHg 81%
    15:00 +26°C° 0,4 mm 4 m/S 737 mmHg 82%
    16:00 +25°C° 0,4 mm 4 m/S 737 mmHg 83%
    17:00 +25°C° 0,4 mm 4 m/S 738 mmHg 84%
    18:00 +23°C° 0,2 mm 4 m/S 738 mmHg 87%
    19:00 +22°C° 0,2 mm 3 m/S 738 mmHg 91%
    20:00 +21°C° 0,2 mm 3 m/S 738 mmHg 95%
    21:00 +21°C° 0,1 mm 3 m/S 738 mmHg 96%
    22:00 +20°C° 0,1 mm 3 m/S 737 mmHg 96%
    23:00 +19°C° 0,1 mm 3 m/S 737 mmHg 97%

    23 Juli, Montag

    Zeit Temperatur Niederschläge Wind Luftdruck Luftfeuchtigkeit
    00:00 +19°C° 0,1 mm 3 m/S 737 mmHg 97%
    01:00 +19°C° 0,1 mm 3 m/S 737 mmHg 97%
    02:00 +19°C° 0,1 mm 3 m/S 737 mmHg 98%
    03:00 +19°C° 0 mm 3 m/S 737 mmHg 98%
    04:00 +19°C° 0 mm 3 m/S 737 mmHg 98%
    05:00 +19°C° 0 mm 4 m/S 737 mmHg 98%
    06:00 +19°C° 0,1 mm 4 m/S 738 mmHg 97%
    07:00 +19°C° 0,1 mm 4 m/S 738 mmHg 96%
    08:00 +20°C° 0,1 mm 4 m/S 738 mmHg 95%
    09:00 +20°C° 0,1 mm 4 m/S 738 mmHg 93%
    10:00 +21°C° 0,1 mm 4 m/S 738 mmHg 92%
    11:00 +21°C° 0,1 mm 4 m/S 738 mmHg 91%
    12:00 +21°C° 0,1 mm 4 m/S 738 mmHg 89%
    13:00 +22°C° 0,1 mm 4 m/S 738 mmHg 88%
    14:00 +22°C° 0,1 mm 4 m/S 738 mmHg 86%
    15:00 +22°C° 0 mm 4 m/S 738 mmHg 86%
    16:00 +22°C° 0 mm 4 m/S 739 mmHg 85%
    17:00 +22°C° 0 mm 4 m/S 739 mmHg 85%
    18:00 +22°C° 0 mm 3 m/S 739 mmHg 87%
    19:00 +21°C° 0 mm 3 m/S 739 mmHg 89%
    20:00 +20°C° 0 mm 3 m/S 739 mmHg 92%
    21:00 +20°C° 0 mm 3 m/S 739 mmHg 93%
    22:00 +19°C° 0 mm 3 m/S 739 mmHg 93%
    23:00 +19°C° 0 mm 3 m/S 739 mmHg 94%

    24 Juli, Dienstag

    Zeit Temperatur Niederschläge Wind Luftdruck Luftfeuchtigkeit
    00:00 +19°C° 0 mm 3 m/S 739 mmHg 95%
    01:00 +18°C° 0 mm 3 m/S 739 mmHg 95%
    02:00 +18°C° 0 mm 3 m/S 739 mmHg 95%
    03:00 +18°C° 0 mm 3 m/S 739 mmHg 95%
    04:00 +18°C° 0 mm 3 m/S 739 mmHg 95%
    05:00 +18°C° 0 mm 3 m/S 739 mmHg 95%
    06:00 +19°C° 0,1 mm 4 m/S 740 mmHg 93%
    07:00 +19°C° 0,1 mm 4 m/S 740 mmHg 92%
    08:00 +20°C° 0,1 mm 4 m/S 740 mmHg 90%
    09:00 +20°C° 0,1 mm 4 m/S 740 mmHg 89%
    10:00 +21°C° 0,1 mm 4 m/S 741 mmHg 87%
    11:00 +22°C° 0,1 mm 4 m/S 741 mmHg 85%
    12:00 +22°C° 0 mm 4 m/S 741 mmHg 84%
    13:00 +22°C° 0 mm 4 m/S 741 mmHg 82%
    14:00 +23°C° 0 mm 4 m/S 741 mmHg 80%
    15:00 +24°C° 0 mm 3 m/S 741 mmHg 81%
    16:00 +24°C° 0 mm 3 m/S 741 mmHg 82%
    17:00 +24°C° 0 mm 3 m/S 742 mmHg 82%
    18:00 +23°C° 0 mm 2 m/S 742 mmHg 85%
    19:00 +21°C° 0 mm 2 m/S 742 mmHg 88%
    20:00 +20°C° 0 mm 2 m/S 742 mmHg 90%
    21:00 +20°C° 0 mm 1 m/S 742 mmHg 92%
    22:00 +20°C° 0 mm 1 m/S 742 mmHg 93%
    23:00 +19°C° 0 mm 1 m/S 742 mmHg 94%
    Mehr zeigen